Location: Table Mountain
(47.2500°N, 120.5778°W)
Time: 02:16:23
(UTC-08:00)

Tiangong 1 - Pass Details

Date: 13 October 2017
Orbit: 275 x 302 km, 42.8° (Epoch: 14 December)

Event Time Altitude Azimuth Distance (km) Brightness Sun altitude
Rises 19:42:50 0° 265° (W) 2,078 6.6 -15.2°
Reaches altitude 10° 19:45:13 10° 246° (WSW) 1,228 4.6 -15.6°
Maximum altitude 19:47:12 18° 199° (SSW) 864 3.0 -16.0°
Enters shadow 19:48:04 16° 174° (S) 937 2.9 -16.1°
